Regional Weather Roundup
Issued by NWS Wakefield, VA

Home | Current Version | Previous Version | Text Only | Print | Product List | Glossary Off
Versions: 1 2 3 4 5 6 7 8 9 10 11 12 13 14 15 16 17 18 19 20 21 22 23 24 25 26 27 28 29 30 31 32 33 34 35 36 37 38 39 40 41 42 43 44 45 46 47 48 49 50

000
ASUS41 KAKQ 261610
RWRAKQ

REGIONAL WEATHER ROUNDUP
NATIONAL WEATHER SERVICE WAKEFIELD VA
1200 PM EDT SAT JUL 26 2014

Note: "fair" indicates few or no clouds below 12,000 feet with no
significant weather and/or obstructions to visibility. * = Denotes
station may not report precipitation (e.g., rain,snow,etc.),
thunder or fog.

VAZ042-051-052>054-056-261700-
NORTHERN VIRGINIA

CITY           SKY/WX    TMP DP  RH WIND       PRES   REMARKS
WASH NATIONAL  PTSUNNY   83  62  49 CALM      29.99F
DULLES         MOSUNNY   81  60  48 N6        30.00S
FORT BELVOIR   PTSUNNY   78  66  66 NW2       30.00F
QUANTICO       PTSUNNY   77  68  73 S5        30.01S
FREDERICKSBRG* PTSUNNY   79  70  72 SW6       29.99F
STAFFORD*      PTSUNNY   77  71  79 CALM      30.04S
WARRENTON      PTSUNNY   82  71  70 NE3       30.00S
CULPEPER*      SUNNY    N/A N/A N/A CALM      30.01S
MANASSAS*      SUNNY     79  50  36 CALM      30.00F
LEESBURG*      SUNNY     81  64  57 N5        30.01S
WINCHESTER     SUNNY     81  54  39 N6        30.01F
$$

VAZ048-049-060>072-079>083-261700-
CENTRAL AND SOUTH CENTRAL VIRGINIA...AND NORTH CENTRAL NORTH CAROLINA

CITY           SKY/WX    TMP DP  RH WIND       PRES   REMARKS
RICHMOND       PTSUNNY   83  70  64 S13       30.00F
CHESTERFIELD*  CLOUDY    82  64  54 SW10      30.02F
HANOVER        PTSUNNY   83  70  64 S8        30.01F
TAPPAHANNOCK*  MOSUNNY   83  67  58 S5        30.01F
CHARLOTTSVILLE MOSUNNY   80  66  62 VRB3      30.01S
ORANGE*        CLOUDY    79  68  69 NE3       30.02S
LOUISA*        MOSUNNY   79  70  73 CALM      30.01R
FARMVILLE*     MOSUNNY   84  63  48 SW6       29.99S
SOUTH HILL*    PTSUNNY   81  75  83 SW6       30.08F
ROANOKE RAPIDS MOSUNNY   84  70  61 S3        30.03S
RALEIGH        PTSUNNY   80  71  74 SW5       30.05S
$$

VAZ088>098-261700-
SOUTHEAST VIRGINIA

CITY           SKY/WX    TMP DP  RH WIND       PRES   REMARKS
NORFOLK        SUNNY     84  62  47 S6        30.02F
VIRGINIA BEACH MOSUNNY   83  65  54 VRB5      30.01F
NORFOLK NAVAL  MOSUNNY   85  66  53 SW8       30.03F
WEST POINT*    PTSUNNY   85  69  58 S8        30.02F
NEWPORT NEWS   SUNNY     86  69  56 SW9       30.02F
LANGLEY AFB    MOSUNNY   84  68  58 S7        30.00F
FORT EUSTIS    SUNNY     82  70  66 S7        30.00F
WILLIAMSBURG*  SUNNY     86  73  66 SE7       30.02F
FRANKLIN*      PTSUNNY   84  70  61 S5        30.02S
WAKEFIELD      MOSUNNY   82  70  66 VRB6      30.02S
$$

VAZ020-022-025-037-045-261700-
WESTERN AND SOUTHWEST VIRGINIA

CITY           SKY/WX    TMP DP  RH WIND       PRES   REMARKS
STAUNTON*      CLOUDY    78  62  57 CALM      30.05F
HOT SPRINGS VA SUNNY     68  55  63 NW5       30.17F
LYNCHBURG      PTSUNNY   82  62  50 W5        30.04F
DANVILLE       PTSUNNY   85  69  58 VRB3      30.02F
MARTINSVILLE   PTSUNNY   85  67  54 CALM      30.06F
ROANOKE        MOSUNNY   83  62  49 SW5       30.05F
BLACKSBURG     SUNNY     81  63  54 W6          N/A
DUBLIN*        SUNNY     80  60  50 SW3       30.10F
MARION*        SUNNY    N/A N/A N/A SW9G17    30.14S
HILLSVILLE*    SUNNY     78  58  50 W7        30.12F
RICHLANDS*     MOSUNNY   76  58  53 W6        30.14S
WISE*          MOSUNNY   73  57  56 SW5       30.16R
ABINGDON*      MOSUNNY   79  62  56 SW7       30.12R
$$

MDZ021>025-VAZ099-100-261700-
SOUTHERN MARYLAND AND THE DELMARVA PENINSULA

CITY           SKY/WX    TMP DP  RH WIND       PRES   REMARKS
PATUXENT RIVER PTSUNNY   79  69  71 SW9       29.99F
BAY BRIDGE APT   N/A     77  68  73 SW3       29.98F
LEONARDTOWN    PTSUNNY   79  68  69 S9        30.00F
DOVER          LGT RAIN  76  71  85 S9        29.98F
GEORGETOWN     PTSUNNY   81  69  67 S14       30.00F
EASTON         PTSUNNY   77  72  83 W5        30.02F
CAMBRIDGE      PTSUNNY   81  68  65 S10G17    29.98F
SALISBURY      NOT AVBL
OCEAN CITY     MOSUNNY   79  68  69 S8        30.01F
WALLOPS ISLAND MOSUNNY   84  69  60 S14       30.02F
ACCOMACK*        N/A     81  66  61 S5        30.01F
$$

NCZ012>017-030>032-261700-
EASTERN NORTH CAROLINA

CITY           SKY/WX    TMP DP  RH WIND       PRES   REMARKS
ELIZABETH CITY SUNNY     83  64  52 SE8       30.03S
AHOSKIE*       MOSUNNY   82  70  67 S5        30.03F
EDENTON*       MOSUNNY   82  69  64 SE5       30.03F
CURRITUCK*     SUNNY     86  63  46 E6        30.04S
KILL DEVIL HLS SUNNY     82  61  49 SE8       30.03S
MANTEO         NOT AVBL
CAPE HATTERAS  PTSUNNY   85  72  65 NE7       30.03R
GOLDSBORO      MOSUNNY   84  76  75 VRB2      30.01S
WASHINGTON     SUNNY     82  72  71 S3        30.03F
GREENVILLE     MOSUNNY   86  72  62 CALM      30.04F
NEW BERN       SUNNY     86  71  60 CALM      30.04S
WILMINGTON     CLOUDY    85  75  72 VRB3      30.02F
$$

VAZ048-261700-
ELSEWHERE

CITY           SKY/WX    TMP DP  RH WIND       PRES   REMARKS
HARRISBURG PA  MOSUNNY   78  59  51 CALM      29.99F
BALTIMORE      PTSUNNY   80  65  59 NW5       29.98F
ANNAPOLIS      CLOUDY    76  66  71 VRB3      29.98F
ANDREWS AFB    PTSUNNY   77  67  69 SW3       30.00S
WILMINGTON DE  CLOUDY    76  67  73 SW7       29.99F
PHILADELPHIA   CLOUDY    77  66  68 VRB3      29.99F
WILDWOOD NJ*   PTSUNNY   79  64  61 S10       30.01F
ATLANTIC CITY  CLOUDY    78  66  66 SW9       30.00S
HENDERSON NC   MOSUNNY   80  70  70 SW5       30.04S
GREENSBORO     PTSUNNY   84  67  56 CALM      30.04S
ROCKY MOUNT    PTSUNNY   83  72  69 CALM      30.03F
FAYETTEVILLE   MOSUNNY   87  72  60 NE5       30.03S
CHARLOTTE      MOSUNNY   83  70  64 SW5       30.05S
$$

VAZ100-261700-
MARINE

STATION/POSITION TIME  TEMP    WIND        PRES    WAVE   SWELL
                       AIR SEA DIR/SP/G            HT/PER HT/PER
                 (UTC) (F)     (DEG/KT/KT) (MB)    (FT/S) (FT/S)
44066 TX TWR #4  1600   74 74  230/  8/  8 1016.3F   2/ 8   2/ 8
CAPE MAY NJ      1600   76 77  200/  8/ 11 1015.6S
LEWES DE         1600   79 72  220/  5/  8 1015.5F
15NM E FENWICK I 1600   76 76              1016.4F   2/ 8
OCEAN-CITY-INLET 1600   75 72  200/ 11/ 13 1016.0F
WACHAPREAGUE VA  1600   79 79  190/  8/ 12 1016.3F
THOMAS POINT MD  1600   75 79  290/  2/  4 1015.8F
GOOSES REEF MD   1600   78     260/  8/ 10 1016.0F
COVE POINT MD    1600   78     220/  9/ 10 1015.3F
SOLOMONS ISLAND  1600      80                N/A
BISHOPS HEAD MD  1600   77 78  190/ 15/ 17 1015.4F
PINEY POINT MD   1600          210/  8/  9   N/A
POTOMAC MD       1600   78     230/  8/ 10 1015.3F
CAMBRIDGE MD     1600   79 80  190/  6/ 11 1015.2F
LEWISETTA VA     1600   80 80  220/  7/ 10 1015.4F
RAPPAHANNOCK LGT 1600          190/ 13/ 15 1016.9S
STINGRAY PT      1600   79     220/  8/ 10 1017.0S
YORK RVR RNG VA  1600   80     210/  6/  7 1015.8F
YORKTOWN VA      1600   81 80  190/  5/  6 1015.9F
JAMESTOWN VA     1600   78     200/  6/  8   N/A
DOMINION TERM VA 1600   79     230/  4/  5 1016.7S
KIPTOPEKE VA     1600      81  200/  9/ 10   N/A
CHES BAY BRIDGE  1600   79 74   60/  4/  4 1016.0S
CAPE HENRY VA    1600   79     130/ 12/ 14 1015.5S
WILLOUBY STN VA  1600          220/  7/  8 1015.9S
S CRANEY ISL VA  1600          180/  5/  7 1016.5F
CAPE HENRY BUOY  1600      77                N/A     2/ 7
1ST LANDING BUOY 1600   78     130/ 12/ 14 1016.4R
CAPE CHARLES BUO 1600      77                N/A     2/ 7
OFFSHORE WE BUOY 1600      78                N/A     2/ 7
64NM E OF VA BCH 1600   77 78  130/  6/  6 1016.7F   2/ 7   2/ 7
DUCK PIER NC     1600   78 77  130/  9/ 10 1016.4F
44056 DUCK FRF   1600                        N/A     2/ 7
OREGON INLET NC  1600   80 78   80/  8/ 10 1017.1R
HATTERAS NC      1600   81 80   50/  7/ 10 1017.2F
DIAMOND SHLS NC  1600          VRB  6/  8  1016.4F   2/ 6   2/ 6
CAPE LOOKOUT NC  1500   80      70/  4/  5 1016.7R
$$



USA.gov is the U.S. government's official web portal to all federal, state and local government web resources and services.